UTA295 UUWW-USRR

Flight info

Callsign UTA295
Flight time N/A
Altitude 35000
Route OLMUN T629 IPSIL T830 LAMGU N604 HMN L870 STELA
Aircraft B738/M-SDE2E3FGHIRWXY/LB1

Departure

Time 2026-05-07 12:10
Airport Vnukovo International Airport (UUWW)

Arrival

Time N/A
Airport Surgut International Airport (USRR)
Time Latitude Longitude Altitude Speed Heading
2026-05-07 11:36 55.60141 37.28140 679 ft 0 kts 36°
2026-05-07 12:00 55.60132 37.28127 679 ft 2 kts 37°
2026-05-07 12:00 55.60118 37.28110 679 ft 2 kts 37°
2026-05-07 12:01 55.60105 37.28092 679 ft 2 kts 37°
2026-05-07 12:01 55.60092 37.28074 675 ft 2 kts 39°
2026-05-07 12:01 55.60084 37.28050 676 ft 2 kts 90°
2026-05-07 12:01 55.60086 37.28021 679 ft 2 kts 109°
2026-05-07 12:02 55.60091 37.27997 678 ft 1 kts 117°
2026-05-07 12:02 55.60093 37.27992 677 ft 0 kts 119°
2026-05-07 12:04 55.60091 37.27997 678 ft 2 kts 117°
2026-05-07 12:05 55.60083 37.28035 677 ft 5 kts 109°
2026-05-07 12:05 55.60076 37.28080 679 ft 6 kts 101°
2026-05-07 12:05 55.60075 37.28169 679 ft 8 kts 84°
2026-05-07 12:05 55.60081 37.28278 679 ft 9 kts 84°
2026-05-07 12:06 55.60088 37.28384 679 ft 9 kts 83°
2026-05-07 12:06 55.60109 37.28460 677 ft 6 kts 53°
2026-05-07 12:06 55.60138 37.28516 678 ft 6 kts 47°
2026-05-07 12:06 55.60167 37.28571 677 ft 6 kts 47°
2026-05-07 12:07 55.60197 37.28625 678 ft 6 kts 46°
2026-05-07 12:07 55.60210 37.28696 678 ft 7 kts 104°
2026-05-07 12:07 55.60180 37.28762 678 ft 7 kts 134°
2026-05-07 12:07 55.60139 37.28834 679 ft 9 kts 141°
2026-05-07 12:08 55.60078 37.28883 678 ft 10 kts 165°
2026-05-07 12:08 55.60011 37.28912 682 ft 10 kts 166°
2026-05-07 12:08 55.59950 37.28938 682 ft 8 kts 166°
2026-05-07 12:08 55.59894 37.28963 684 ft 8 kts 166°
2026-05-07 12:09 55.59840 37.28987 686 ft 8 kts 163°
2026-05-07 12:09 55.59792 37.28964 691 ft 8 kts 230°
2026-05-07 12:09 55.59769 37.28878 686 ft 8 kts 249°
2026-05-07 12:09 55.59711 37.28618 686 ft 52 kts 248°
2026-05-07 12:10 55.59492 37.27644 675 ft 117 kts 248°
2026-05-07 12:10 55.59126 37.26004 696 ft 165 kts 249°
2026-05-07 12:10 55.58704 37.24086 1438 ft 161 kts 249°
2026-05-07 12:10 55.58083 37.22508 2225 ft 164 kts 217°
2026-05-07 12:11 55.57219 37.21260 2861 ft 161 kts 241°
2026-05-07 12:11 55.56685 37.19573 3512 ft 159 kts 239°
2026-05-07 12:11 55.56044 37.17878 4094 ft 174 kts 237°
2026-05-07 12:11 55.55312 37.15969 4249 ft 198 kts 241°
2026-05-07 12:12 55.54838 37.13587 4510 ft 213 kts 262°
2026-05-07 12:12 55.54762 37.10984 5012 ft 216 kts 266°
2026-05-07 12:12 55.54703 37.08301 5532 ft 221 kts 266°
2026-05-07 12:12 55.55032 37.05647 6223 ft 228 kts 296°
2026-05-07 12:13 55.56144 37.03597 6832 ft 240 kts 321°
2026-05-07 12:13 55.57770 37.02524 6951 ft 261 kts 348°
2026-05-07 12:13 55.59609 37.02443 7017 ft 266 kts 353°
2026-05-07 12:13 55.61478 37.02710 7124 ft 277 kts 12°
2026-05-07 12:14 55.63135 37.04404 7753 ft 284 kts 40°
2026-05-07 12:14 55.64258 37.07391 7989 ft 305 kts 72°
2026-05-07 12:14 55.64530 37.11127 8055 ft 310 kts 91°
2026-05-07 12:14 55.64456 37.14960 8602 ft 313 kts 94°
2026-05-07 12:15 55.64375 37.18796 8972 ft 313 kts 95°
2026-05-07 12:15 55.63918 37.22527 9021 ft 310 kts 112°
2026-05-07 12:15 55.63207 37.26159 9689 ft 311 kts 111°
2026-05-07 12:15 55.62535 37.29716 10365 ft 312 kts 111°
2026-05-07 12:16 55.61861 37.33371 11024 ft 314 kts 110°
2026-05-07 12:16 55.61186 37.37054 11666 ft 316 kts 110°
2026-05-07 12:16 55.60500 37.40791 12279 ft 320 kts 110°
2026-05-07 12:16 55.59809 37.44553 12856 ft 323 kts 110°
2026-05-07 12:17 55.59107 37.48369 12862 ft 328 kts 110°
2026-05-07 12:17 55.58406 37.52181 12957 ft 327 kts 110°
2026-05-07 12:17 55.57700 37.56019 13555 ft 328 kts 110°
2026-05-07 12:17 55.57193 37.59905 14192 ft 333 kts 92°
2026-05-07 12:18 55.57544 37.64015 14839 ft 338 kts 67°
2026-05-07 12:18 55.58609 37.67659 15458 ft 339 kts 57°
2026-05-07 12:18 55.59854 37.71297 15866 ft 342 kts 56°
2026-05-07 12:18 55.61096 37.74909 15852 ft 344 kts 57°
2026-05-07 12:19 55.62318 37.78552 15856 ft 344 kts 57°
2026-05-07 12:19 55.63524 37.82194 15857 ft 343 kts 58°
2026-05-07 12:19 55.64487 37.86046 15829 ft 344 kts 78°
2026-05-07 12:19 55.64619 37.90166 15846 ft 339 kts 99°
2026-05-07 12:20 55.64153 37.94295 15938 ft 338 kts 104°
2026-05-07 12:20 55.63617 37.98301 16415 ft 340 kts 105°
2026-05-07 12:20 55.63061 38.02397 16834 ft 345 kts 104°
2026-05-07 12:20 55.62515 38.06542 17078 ft 345 kts 104°
2026-05-07 12:21 55.61978 38.10699 17646 ft 349 kts 104°
2026-05-07 12:21 55.61439 38.14909 18224 ft 352 kts 104°
2026-05-07 12:21 55.60890 38.19220 18424 ft 368 kts 103°
2026-05-07 12:21 55.60316 38.23724 18691 ft 380 kts 103°
2026-05-07 12:22 55.59730 38.28302 19198 ft 383 kts 103°
2026-05-07 12:22 55.59142 38.32896 19805 ft 383 kts 103°
2026-05-07 12:22 55.58552 38.37500 20347 ft 386 kts 103°
2026-05-07 12:22 55.58032 38.42156 20813 ft 390 kts 94°
2026-05-07 12:23 55.58288 38.46941 20972 ft 396 kts 72°
2026-05-07 12:23 55.59423 38.51365 21508 ft 395 kts 58°
2026-05-07 12:23 55.60851 38.55522 22101 ft 395 kts 56°
2026-05-07 12:23 55.62296 38.59678 22629 ft 398 kts 56°
2026-05-07 12:24 55.63727 38.63885 23118 ft 401 kts 57°
2026-05-07 12:24 55.65150 38.68145 23567 ft 404 kts 57°
2026-05-07 12:24 55.66574 38.72453 23971 ft 406 kts 57°
2026-05-07 12:24 55.67980 38.76736 24404 ft 408 kts 58°
2026-05-07 12:25 55.69405 38.81096 24822 ft 410 kts 57°
2026-05-07 12:25 55.70841 38.85483 25209 ft 412 kts 57°
2026-05-07 12:25 55.72287 38.89892 25606 ft 414 kts 57°
2026-05-07 12:25 55.73803 38.94254 26001 ft 415 kts 50°
2026-05-07 12:26 55.75709 38.98084 26382 ft 415 kts 42°
2026-05-07 12:26 55.77746 39.01729 26739 ft 417 kts 41°
2026-05-07 12:26 55.79798 39.05398 27106 ft 420 kts 42°
2026-05-07 12:26 55.81832 39.09145 27486 ft 422 kts 43°
2026-05-07 12:27 55.83852 39.12946 27840 ft 424 kts 43°
2026-05-07 12:27 55.85876 39.16794 28108 ft 429 kts 43°
2026-05-07 12:27 55.87929 39.20728 28144 ft 438 kts 44°
2026-05-07 12:28 55.92156 39.28836 28286 ft 455 kts 44°
2026-05-07 12:28 55.96705 39.36823 28404 ft 468 kts 39°
2026-05-07 12:29 56.01592 39.44750 28561 ft 480 kts 39°
2026-05-07 12:29 56.04051 39.48824 28808 ft 483 kts 40°
2026-05-07 12:29 56.06502 39.52928 29161 ft 482 kts 40°
2026-05-07 12:29 56.08772 39.57336 29528 ft 484 kts 51°
2026-05-07 12:30 56.10646 39.62347 30012 ft 482 kts 54°
2026-05-07 12:30 56.12426 39.67417 30354 ft 481 kts 56°
2026-05-07 12:30 56.14187 39.72519 30598 ft 482 kts 56°
2026-05-07 12:30 56.15953 39.77625 30813 ft 482 kts 55°
2026-05-07 12:31 56.17736 39.82731 31117 ft 482 kts 54°
2026-05-07 12:31 56.19520 39.87796 31450 ft 480 kts 54°
2026-05-07 12:31 56.21312 39.92855 31737 ft 479 kts 55°
2026-05-07 12:31 56.23105 39.97908 31975 ft 480 kts 54°
2026-05-07 12:32 56.24897 40.02961 32226 ft 480 kts 55°
2026-05-07 12:32 56.26687 40.08027 32511 ft 479 kts 54°
2026-05-07 12:32 56.28473 40.13089 32785 ft 478 kts 55°
2026-05-07 12:32 56.30252 40.18149 33055 ft 478 kts 54°
2026-05-07 12:33 56.33800 40.28278 33537 ft 478 kts 54°
2026-05-07 12:33 56.35545 40.33279 33760 ft 478 kts 55°
2026-05-07 12:33 56.37313 40.38361 33979 ft 478 kts 55°
2026-05-07 12:34 56.39075 40.43445 34136 ft 478 kts 55°
2026-05-07 12:34 56.40838 40.48545 34291 ft 479 kts 54°
2026-05-07 12:34 56.42605 40.53655 34442 ft 480 kts 54°
2026-05-07 12:34 56.44374 40.58766 34639 ft 479 kts 55°
2026-05-07 12:35 56.45982 40.64052 34778 ft 481 kts 63°
2026-05-07 12:35 56.47146 40.69720 34865 ft 483 kts 71°
2026-05-07 12:35 56.48916 40.81481 34860 ft 486 kts 73°
2026-05-07 12:36 56.50610 40.93297 34853 ft 484 kts 73°
2026-05-07 12:36 56.52328 41.05066 34871 ft 483 kts 73°
2026-05-07 12:37 56.54058 41.16817 34860 ft 483 kts 73°
2026-05-07 12:37 56.55783 41.28577 34871 ft 482 kts 73°
2026-05-07 12:38 56.57499 41.40347 34857 ft 482 kts 73°
2026-05-07 12:38 56.59200 41.52117 34867 ft 482 kts 73°
2026-05-07 12:39 56.60891 41.63909 34868 ft 483 kts 73°
2026-05-07 12:39 56.62481 41.75090 34866 ft 484 kts 74°
2026-05-07 12:40 56.64154 41.86933 34871 ft 484 kts 74°
2026-05-07 12:40 56.65818 41.98811 34867 ft 485 kts 74°
2026-05-07 12:41 56.67470 42.10703 34869 ft 485 kts 74°
2026-05-07 12:41 56.69113 42.22627 34868 ft 486 kts 74°
2026-05-07 12:42 56.70740 42.34551 34874 ft 486 kts 74°
2026-05-07 12:42 56.72353 42.46506 34876 ft 486 kts 74°
2026-05-07 12:43 56.73976 42.58460 34887 ft 486 kts 73°
2026-05-07 12:43 56.75882 42.70273 34875 ft 486 kts 71°
2026-05-07 12:44 56.77897 42.82052 34884 ft 486 kts 71°
2026-05-07 12:44 56.79857 42.93859 34893 ft 486 kts 71°
2026-05-07 12:45 56.81767 43.05687 34900 ft 486 kts 72°
2026-05-07 12:45 56.83655 43.17547 34887 ft 486 kts 72°
2026-05-07 12:46 56.85519 43.29343 34893 ft 486 kts 72°
2026-05-07 12:46 56.87386 43.41227 34887 ft 487 kts 72°
2026-05-07 12:47 56.89242 43.53125 34917 ft 486 kts 72°
2026-05-07 12:47 56.91089 43.65038 34893 ft 487 kts 72°
2026-05-07 12:48 56.92925 43.76967 34902 ft 487 kts 72°
2026-05-07 12:48 56.94750 43.88913 34905 ft 487 kts 72°
2026-05-07 12:49 56.96565 44.00871 34903 ft 487 kts 72°
2026-05-07 12:49 56.98369 44.12847 34915 ft 487 kts 72°
2026-05-07 12:50 57.00157 44.24813 34916 ft 487 kts 73°
2026-05-07 12:50 57.01937 44.36804 34913 ft 487 kts 73°
2026-05-07 12:51 57.03695 44.48740 34916 ft 487 kts 73°
2026-05-07 12:51 57.05165 44.58787 34922 ft 487 kts 73°
2026-05-07 12:52 57.06913 44.70820 34927 ft 487 kts 73°
2026-05-07 12:52 57.08930 44.84828 34931 ft 488 kts 73°
2026-05-07 12:53 57.10367 44.94875 34931 ft 488 kts 73°
2026-05-07 12:53 57.12082 45.06959 34932 ft 489 kts 73°
2026-05-07 12:54 57.13789 45.19075 34938 ft 489 kts 73°
2026-05-07 12:54 57.15484 45.31209 34936 ft 489 kts 74°
2026-05-07 12:55 57.17169 45.43359 34944 ft 490 kts 74°
2026-05-07 12:55 57.18845 45.55532 34949 ft 490 kts 74°
2026-05-07 12:56 57.20510 45.67725 34951 ft 490 kts 74°
2026-05-07 12:56 57.22161 45.79934 34961 ft 490 kts 74°
2026-05-07 12:57 57.23801 45.92151 34964 ft 491 kts 74°
2026-05-07 12:57 57.25431 46.04395 34956 ft 491 kts 75°
2026-05-07 12:58 57.27039 46.16574 34964 ft 491 kts 75°
2026-05-07 12:58 57.28643 46.28836 34980 ft 491 kts 75°
2026-05-07 12:59 57.30236 46.41125 34983 ft 491 kts 75°
2026-05-07 12:59 57.31815 46.53432 34977 ft 492 kts 75°
2026-05-07 13:00 57.33379 46.65763 34974 ft 492 kts 75°
2026-05-07 13:00 57.35032 46.78031 34990 ft 491 kts 69°
2026-05-07 13:01 57.37744 46.89632 34976 ft 490 kts 62°
2026-05-07 13:01 57.40643 47.01073 35001 ft 490 kts 63°
2026-05-07 13:02 57.43462 47.12589 34991 ft 491 kts 63°
2026-05-07 13:02 57.46234 47.24180 34995 ft 491 kts 63°
2026-05-07 13:03 57.48997 47.35786 35007 ft 491 kts 63°
2026-05-07 13:03 57.51772 47.47396 35002 ft 491 kts 63°
2026-05-07 13:04 57.54554 47.59021 35005 ft 491 kts 64°
2026-05-07 13:04 57.57314 47.70672 35002 ft 491 kts 64°
2026-05-07 13:05 57.60036 47.82269 34999 ft 492 kts 64°
2026-05-07 13:05 57.62763 47.93967 35012 ft 492 kts 64°
2026-05-07 13:06 57.65479 48.05687 35008 ft 492 kts 64°
2026-05-07 13:06 57.68185 48.17421 35004 ft 492 kts 64°
2026-05-07 13:07 57.70878 48.29189 35009 ft 492 kts 64°
2026-05-07 13:07 57.73559 48.40983 35018 ft 492 kts 64°
2026-05-07 13:08 57.76248 48.52782 35006 ft 493 kts 64°
2026-05-07 13:08 57.78945 48.64581 35011 ft 493 kts 64°
2026-05-07 13:09 57.81619 48.76405 35022 ft 492 kts 65°
2026-05-07 13:09 57.84256 48.88175 35010 ft 493 kts 65°
2026-05-07 13:10 57.86899 49.00056 35021 ft 493 kts 65°
2026-05-07 13:10 57.89532 49.11956 35018 ft 493 kts 65°
2026-05-07 13:11 57.92153 49.23873 35022 ft 493 kts 65°
2026-05-07 13:11 57.94761 49.35807 35023 ft 493 kts 65°
2026-05-07 13:12 57.97365 49.47779 35025 ft 493 kts 65°
2026-05-07 13:12 57.99955 49.59760 35013 ft 494 kts 65°
2026-05-07 13:13 58.02533 49.71760 35040 ft 493 kts 65°
2026-05-07 13:13 58.05096 49.83768 35045 ft 493 kts 65°
2026-05-07 13:14 58.07650 49.95805 35046 ft 494 kts 66°
2026-05-07 13:14 58.10190 50.07857 35043 ft 494 kts 66°
2026-05-07 13:15 58.12719 50.19962 35044 ft 494 kts 65°
2026-05-07 13:15 58.15229 50.31998 35046 ft 495 kts 65°
2026-05-07 13:16 58.17762 50.44103 35049 ft 495 kts 65°
2026-05-07 13:16 58.20289 50.56221 35053 ft 495 kts 66°
2026-05-07 13:17 58.22796 50.68391 35035 ft 495 kts 66°
2026-05-07 13:17 58.25282 50.80567 35042 ft 495 kts 66°
2026-05-07 13:18 58.27759 50.92779 35039 ft 495 kts 66°
2026-05-07 13:18 58.30223 51.05012 35053 ft 494 kts 66°
2026-05-07 13:19 58.32663 51.17230 35043 ft 494 kts 66°
2026-05-07 13:19 58.35104 51.29457 35035 ft 494 kts 66°
2026-05-07 13:20 58.37544 51.41698 35030 ft 494 kts 66°
2026-05-07 13:20 58.39944 51.53904 35041 ft 494 kts 66°
2026-05-07 13:21 58.42177 51.65294 35052 ft 494 kts 66°
2026-05-07 13:21 58.44738 51.77443 35034 ft 494 kts 65°
2026-05-07 13:22 58.47351 51.89585 35057 ft 493 kts 65°
2026-05-07 13:22 58.49901 52.01769 35038 ft 494 kts 65°
2026-05-07 13:23 58.52443 52.13981 35047 ft 494 kts 65°
2026-05-07 13:23 58.54991 52.26191 35046 ft 494 kts 65°
2026-05-07 13:24 58.57523 52.38459 35054 ft 495 kts 66°
2026-05-07 13:24 58.60034 52.50753 35050 ft 495 kts 66°
2026-05-07 13:25 58.62513 52.63003 35049 ft 496 kts 66°
2026-05-07 13:25 58.65010 52.75368 35048 ft 497 kts 66°
2026-05-07 13:26 58.67519 52.87728 35043 ft 497 kts 66°
2026-05-07 13:26 58.70022 53.00130 35049 ft 498 kts 66°
2026-05-07 13:27 58.72500 53.12569 35050 ft 498 kts 66°
2026-05-07 13:27 58.74967 53.25057 35047 ft 499 kts 66°
2026-05-07 13:28 58.77423 53.37565 35050 ft 499 kts 66°
2026-05-07 13:28 58.79868 53.50094 35049 ft 500 kts 67°
2026-05-07 13:29 58.82299 53.62656 35043 ft 500 kts 66°
2026-05-07 13:29 58.84179 53.72590 35059 ft 500 kts 70°
2026-05-07 13:30 58.86484 53.85275 35046 ft 501 kts 68°
2026-05-07 13:30 58.88732 53.98037 35047 ft 502 kts 71°
2026-05-07 13:31 58.90807 54.10930 35044 ft 502 kts 71°
2026-05-07 13:31 58.92867 54.23828 35046 ft 502 kts 71°
2026-05-07 13:32 58.94940 54.36737 35047 ft 501 kts 71°
2026-05-07 13:32 58.96657 54.47463 35045 ft 501 kts 71°
2026-05-07 13:33 58.98261 54.57545 35043 ft 501 kts 71°
2026-05-07 13:33 59.00289 54.70378 35047 ft 501 kts 71°
2026-05-07 13:34 59.03328 54.89783 35047 ft 501 kts 72°
2026-05-07 13:35 59.05344 55.02761 35041 ft 501 kts 72°
2026-05-07 13:35 59.07345 55.15739 35044 ft 502 kts 72°
2026-05-07 13:36 59.09339 55.28748 35045 ft 502 kts 72°
2026-05-07 13:36 59.11324 55.41790 35038 ft 502 kts 72°
2026-05-07 13:37 59.13295 55.54841 35033 ft 503 kts 72°
2026-05-07 13:37 59.15258 55.67929 35039 ft 503 kts 72°
2026-05-07 13:38 59.17194 55.80942 35031 ft 503 kts 72°
2026-05-07 13:38 59.19145 55.94146 35039 ft 503 kts 72°
2026-05-07 13:39 59.21058 56.07194 35043 ft 504 kts 72°
2026-05-07 13:39 59.22972 56.20348 35034 ft 504 kts 72°
2026-05-07 13:40 59.24873 56.33530 35030 ft 504 kts 73°
2026-05-07 13:40 59.26456 56.44582 35033 ft 504 kts 73°
2026-05-07 13:41 59.28333 56.57791 35031 ft 505 kts 73°
2026-05-07 13:41 59.30200 56.71033 35027 ft 505 kts 73°
2026-05-07 13:42 59.32053 56.84297 35034 ft 505 kts 73°
2026-05-07 13:42 59.33885 56.97503 35029 ft 506 kts 73°
2026-05-07 13:43 59.35716 57.10813 35028 ft 506 kts 73°
2026-05-07 13:43 59.37405 57.24227 35030 ft 507 kts 75°
2026-05-07 13:44 59.38998 57.37706 35031 ft 507 kts 76°
2026-05-07 13:44 59.40595 57.51184 35031 ft 507 kts 75°
2026-05-07 13:45 59.42197 57.64673 35031 ft 507 kts 75°
2026-05-07 13:45 59.43788 57.78170 35030 ft 507 kts 76°
2026-05-07 13:46 59.45364 57.91681 35027 ft 507 kts 76°
2026-05-07 13:46 59.46926 58.05216 35027 ft 507 kts 76°
2026-05-07 13:47 59.48472 58.18761 35026 ft 507 kts 76°
2026-05-07 13:47 59.50006 58.32328 35023 ft 507 kts 76°
2026-05-07 13:48 59.51527 58.45900 35018 ft 508 kts 76°
2026-05-07 13:48 59.53033 58.59485 35016 ft 508 kts 76°
2026-05-07 13:49 59.54525 58.73086 35024 ft 508 kts 76°
2026-05-07 13:49 59.55994 58.86609 35021 ft 508 kts 76°
2026-05-07 13:50 59.57461 59.00248 35016 ft 509 kts 77°
2026-05-07 13:50 59.58919 59.13925 35007 ft 509 kts 77°
2026-05-07 13:51 59.60377 59.27616 35012 ft 509 kts 77°
2026-05-07 13:51 59.61826 59.41312 35002 ft 510 kts 77°
2026-05-07 13:52 59.63261 59.55040 35005 ft 510 kts 77°
2026-05-07 13:52 59.64681 59.68782 35005 ft 510 kts 77°
2026-05-07 13:53 59.66086 59.82541 35000 ft 511 kts 77°
2026-05-07 13:53 59.67480 59.96335 34998 ft 511 kts 77°
2026-05-07 13:54 59.68860 60.10149 35001 ft 511 kts 77°
2026-05-07 13:54 59.70225 60.23974 34997 ft 512 kts 77°
2026-05-07 13:55 59.71578 60.37827 34990 ft 512 kts 78°
2026-05-07 13:55 59.72916 60.51696 34992 ft 512 kts 78°
2026-05-07 13:56 59.74230 60.65475 34993 ft 512 kts 78°
2026-05-07 13:56 59.75542 60.79393 34994 ft 513 kts 78°
2026-05-07 13:57 59.76839 60.93321 34988 ft 513 kts 78°
2026-05-07 13:57 59.78120 61.07255 34981 ft 513 kts 78°
2026-05-07 13:58 59.79387 61.21195 34987 ft 513 kts 78°
2026-05-07 13:58 59.80639 61.35146 34993 ft 513 kts 78°
2026-05-07 13:59 59.81876 61.49110 34981 ft 514 kts 79°
2026-05-07 13:59 59.83100 61.63104 34989 ft 514 kts 79°
2026-05-07 14:00 59.84311 61.77120 34982 ft 514 kts 79°
2026-05-07 14:00 59.85499 61.91064 34976 ft 514 kts 79°
2026-05-07 14:01 59.86682 62.05123 34990 ft 514 kts 79°
2026-05-07 14:01 59.87848 62.19175 34991 ft 515 kts 79°
2026-05-07 14:02 59.88990 62.33109 34983 ft 515 kts 79°
2026-05-07 14:02 59.89313 62.37075 34978 ft 515 kts 79°
2026-05-07 14:03 59.90116 62.46991 34977 ft 515 kts 79°
2026-05-07 14:03 59.90735 62.54640 34976 ft 515 kts 79°
2026-05-07 14:04 59.91863 62.68655 34977 ft 515 kts 79°
2026-05-07 14:04 59.92982 62.82778 34970 ft 515 kts 79°
2026-05-07 14:05 59.94086 62.96897 34972 ft 515 kts 80°
2026-05-07 14:05 59.95175 63.11055 34967 ft 516 kts 80°
2026-05-07 14:06 59.96246 63.25212 34966 ft 516 kts 80°
2026-05-07 14:06 59.97301 63.39354 34963 ft 516 kts 80°
2026-05-07 14:07 59.98278 63.52626 34968 ft 516 kts 80°
2026-05-07 14:07 59.98486 63.55478 34967 ft 516 kts 80°
2026-05-07 14:08 59.99258 63.66141 34964 ft 516 kts 81°
2026-05-07 14:08 60.00273 63.80350 34967 ft 516 kts 81°
2026-05-07 14:09 60.01277 63.94562 34958 ft 516 kts 80°
2026-05-07 14:09 60.02755 64.08579 34969 ft 515 kts 74°
2026-05-07 14:10 60.04522 64.22455 34960 ft 515 kts 73°
2026-05-07 14:10 60.06244 64.36393 34956 ft 516 kts 74°
2026-05-07 14:11 60.07896 64.50372 34961 ft 516 kts 75°
2026-05-07 14:11 60.09527 64.64389 34958 ft 516 kts 75°
2026-05-07 14:12 60.11153 64.78421 34955 ft 517 kts 74°
2026-05-07 14:12 60.13557 64.91869 34968 ft 511 kts 61°
2026-05-07 14:13 60.16637 65.04717 34956 ft 511 kts 60°
2026-05-07 14:13 60.19708 65.17494 34959 ft 512 kts 60°
2026-05-07 14:14 60.22740 65.30441 34953 ft 513 kts 61°
2026-05-07 14:14 60.25742 65.43485 34953 ft 513 kts 61°
2026-05-07 14:15 60.28726 65.56555 34954 ft 514 kts 62°
2026-05-07 14:15 60.31707 65.69673 34956 ft 515 kts 62°
2026-05-07 14:16 60.34680 65.82830 34951 ft 515 kts 62°
2026-05-07 14:16 60.37643 65.96016 34947 ft 516 kts 62°
2026-05-07 14:17 60.40599 66.09259 34947 ft 516 kts 62°
2026-05-07 14:17 60.43540 66.22520 34946 ft 517 kts 62°
2026-05-07 14:18 60.46469 66.35807 34943 ft 517 kts 62°
2026-05-07 14:18 60.49387 66.49126 34942 ft 517 kts 62°
2026-05-07 14:19 60.52277 66.62406 34943 ft 517 kts 62°
2026-05-07 14:19 60.55169 66.75779 34941 ft 517 kts 63°
2026-05-07 14:20 60.58050 66.89188 34942 ft 517 kts 63°
2026-05-07 14:20 60.60916 67.02610 34941 ft 518 kts 63°
2026-05-07 14:21 60.63772 67.16074 34937 ft 518 kts 63°
2026-05-07 14:21 60.66616 67.29572 34938 ft 518 kts 63°
2026-05-07 14:22 60.69451 67.43106 34940 ft 518 kts 63°
2026-05-07 14:22 60.72256 67.56590 34936 ft 519 kts 63°
2026-05-07 14:23 60.75036 67.70202 34930 ft 519 kts 64°
2026-05-07 14:23 60.77796 67.83854 34930 ft 519 kts 64°
2026-05-07 14:24 60.80548 67.97534 34931 ft 519 kts 64°
2026-05-07 14:24 60.83290 68.11244 34927 ft 520 kts 64°
2026-05-07 14:25 60.86019 68.24970 34935 ft 520 kts 64°
2026-05-07 14:25 60.88753 68.38710 34937 ft 520 kts 64°
2026-05-07 14:26 60.91503 68.52464 34938 ft 520 kts 64°
2026-05-07 14:26 60.94239 68.66250 34940 ft 521 kts 64°
2026-05-07 14:27 60.96939 68.79976 34939 ft 521 kts 64°
2026-05-07 14:27 60.99645 68.93832 34941 ft 521 kts 64°
2026-05-07 14:28 61.02340 69.07715 34942 ft 521 kts 64°
2026-05-07 14:28 61.04496 69.22056 34799 ft 528 kts 75°
2026-05-07 14:28 61.05038 69.26973 34408 ft 532 kts 75°
2026-05-07 14:29 61.05818 69.34443 33810 ft 532 kts 76°
2026-05-07 14:29 61.06587 69.41908 33093 ft 532 kts 76°
2026-05-07 14:29 61.07368 69.49382 32377 ft 532 kts 75°
2026-05-07 14:29 61.08165 69.56857 31671 ft 533 kts 75°
2026-05-07 14:30 61.08972 69.64339 30957 ft 534 kts 75°
2026-05-07 14:30 61.09782 69.71833 30215 ft 536 kts 75°
2026-05-07 14:30 61.10594 69.79366 29371 ft 538 kts 75°
2026-05-07 14:30 61.11398 69.86898 28789 ft 534 kts 75°
2026-05-07 14:31 61.12191 69.94373 28209 ft 529 kts 75°
2026-05-07 14:31 61.12971 70.01784 27653 ft 525 kts 75°
2026-05-07 14:31 61.13730 70.09131 26900 ft 520 kts 76°
2026-05-07 14:31 61.14456 70.16462 26266 ft 518 kts 76°
2026-05-07 14:32 61.15157 70.23721 25679 ft 511 kts 77°
2026-05-07 14:32 61.15847 70.30916 25148 ft 508 kts 77°
2026-05-07 14:32 61.16533 70.38086 24594 ft 506 kts 77°
2026-05-07 14:32 61.17208 70.45145 24051 ft 505 kts 77°
2026-05-07 14:33 61.17887 70.52258 23504 ft 503 kts 77°
2026-05-07 14:33 61.18562 70.59360 22878 ft 501 kts 77°
2026-05-07 14:33 61.19228 70.66415 22316 ft 497 kts 77°
2026-05-07 14:33 61.19888 70.73438 21756 ft 494 kts 77°
2026-05-07 14:34 61.20540 70.80412 21222 ft 491 kts 77°
2026-05-07 14:34 61.21183 70.87339 20688 ft 487 kts 77°
2026-05-07 14:34 61.21820 70.94242 20166 ft 485 kts 77°
2026-05-07 14:34 61.22414 71.01078 19766 ft 479 kts 78°
2026-05-07 14:35 61.22977 71.07883 19267 ft 476 kts 79°
2026-05-07 14:35 61.23524 71.14645 18744 ft 475 kts 79°
2026-05-07 14:35 61.24061 71.21314 18204 ft 474 kts 79°
2026-05-07 14:35 61.24604 71.28056 17602 ft 472 kts 79°
2026-05-07 14:36 61.25144 71.34763 17057 ft 469 kts 79°
2026-05-07 14:36 61.25678 71.41405 16528 ft 465 kts 78°
2026-05-07 14:36 61.26208 71.48021 16003 ft 462 kts 78°
2026-05-07 14:36 61.26730 71.54587 15489 ft 459 kts 78°
2026-05-07 14:37 61.27247 71.61111 14963 ft 456 kts 78°
2026-05-07 14:37 61.28260 71.74037 13930 ft 451 kts 78°
2026-05-07 14:37 61.28791 71.80395 13579 ft 442 kts 77°
2026-05-07 14:38 61.29379 71.86633 13113 ft 436 kts 76°
2026-05-07 14:38 61.29977 71.92774 12620 ft 431 kts 76°
2026-05-07 14:38 61.30559 71.98856 12125 ft 426 kts 76°
2026-05-07 14:38 61.31119 72.04874 11638 ft 421 kts 77°
2026-05-07 14:39 61.31671 72.10811 11260 ft 413 kts 76°
2026-05-07 14:39 61.32238 72.16575 10990 ft 400 kts 75°
2026-05-07 14:39 61.32805 72.22169 10729 ft 389 kts 75°
2026-05-07 14:39 61.33354 72.27578 10575 ft 375 kts 75°
2026-05-07 14:40 61.33876 72.32823 10379 ft 365 kts 76°
2026-05-07 14:40 61.34352 72.37965 10028 ft 360 kts 77°
2026-05-07 14:40 61.34770 72.43100 9493 ft 360 kts 78°
2026-05-07 14:40 61.35117 72.48280 8936 ft 360 kts 80°
2026-05-07 14:41 61.35368 72.53449 8491 ft 357 kts 83°
2026-05-07 14:41 61.35522 72.58151 5787 ft 246 kts 81°
2026-05-07 14:41 61.35335 72.57272 127 ft 54 kts 264°
2026-05-07 14:41 61.35324 72.57137 132 ft 0 kts 264°